Location: Caltech
(34.1382°N, 118.1253°W)
Time: 20:57:45
(UTC-07:00)

Oscar 19 - Visible Passes

Search period start: 24 April 2014 00:00
Search period end: 04 May 2014 00:00
Orbit: 775 x 791 km, 98.5° (Epoch: 24 April)

Date Brightness Start Highest point End Pass type
(mag) Time Alt. Az. Time Alt. Az. Time Alt. Az.
24 Apr 12.6 02:19:53 10° NNE 02:22:04 25° NNE 02:22:04 25° NNE visible
24 Apr 12.8 04:01:18 10° NW 04:02:39 13° NW 04:02:39 13° NW visible
25 Apr 13.1 01:48:54 10° NE 01:50:16 17° NE 01:50:16 17° NE visible
25 Apr 12.3 03:28:18 10° NNW 03:30:51 22° NW 03:30:51 22° NW visible
26 Apr 12.1 02:56:14 10° N 02:59:02 31° N 02:59:02 31° N visible
27 Apr 12.4 02:24:40 10° NNE 02:27:13 30° NNE 02:27:13 30° NNE visible
27 Apr 12.8 04:06:34 10° NW 04:07:48 12° NW 04:07:48 12° NW visible
28 Apr 12.9 01:53:35 10° NNE 01:55:24 20° NE 01:55:24 20° NE visible
28 Apr 12.3 03:33:15 10° NNW 03:35:59 22° NW 03:35:59 22° NW visible
29 Apr 13.4 01:23:24 10° NE 01:23:35 11° ENE 01:23:35 11° ENE visible
29 Apr 11.9 03:01:06 10° N 03:04:10 33° NNW 03:04:10 33° NNW visible
30 Apr 12.1 02:29:27 10° NNE 02:32:21 34° NNE 02:32:21 34° NNE visible
30 Apr 12.9 04:12:07 10° NW 04:12:56 11° WNW 04:12:56 11° WNW visible
01 May 12.7 01:58:17 10° NNE 02:00:31 23° NE 02:00:31 23° NE visible
01 May 12.3 03:38:14 10° NNW 03:41:06 21° NW 03:41:06 21° NW visible
02 May 13.3 01:27:53 10° NE 01:28:42 13° ENE 01:28:42 13° ENE visible
02 May 11.8 03:05:57 10° N 03:09:17 34° NNW 03:09:17 34° NNW visible
03 May 11.8 02:34:14 10° NNE 02:37:27 39° NNE 02:37:27 39° NNE visible
